Weather History for KTVL - February, 2013

Change the Weather History Date:

Sunday, February 24, 2013

  Actual Average Record
Temperature  
Mean Temperature 28 °F 32 °F  
Max Temperature 41 °F 45 °F 61 °F (2012)
Min Temperature 15 °F 19 °F 1 °F (1977)
Degree Days  
Heating Degree Days 37 33  
Month to date heating degree days 822 824  
Since 1 July heating degree days 4893 5106  
Cooling Degree Days 0 0  
Month to date cooling degree days 0 0  
Year to date cooling degree days 0 0  
Moisture  
Dew Point 9 °F    
Average Humidity 48    
Maximum Humidity 73    
Minimum Humidity 23    
Precipitation  
Precipitation 0.00 in - 1.87 in (1969)
Month to date precipitation 0.19  
Year to date precipitation 0.90  
Sea Level Pressure  
Sea Level Pressure 30.23 in    
Wind  
Wind Speed 5 mph (SE)    
Max Wind Speed 16 mph    
Max Gust Speed 25 mph    
Visibility 10 miles    
Events      
T = Trace of Precipitation, MM = Missing Value Source: NWS Daily Summary

Daily Weather History Graph

Daily Weather History Graph

Search for Another Location

Airport or City:

Trip Planner

Search our weather history database for the weather conditions in past years. The results will help you decide how hot, cold, wet, or windy it might be!

Date:

Astronomy

Feb. 24, 2013 Rise Set
Actual Time 6:38 AM PST 5:47 PM PST
Civil Twilight 6:12 AM PST 6:14 PM PST
Nautical Twilight 5:41 AM PST 6:45 PM PST
Astronomical Twilight 5:10 AM PST 7:16 PM PST
Moon 5:04 PM PST 5:38 AM PST
Length of Visible Light 12h 02m
Length of Day
11h 08m
Waxing Gibbous, 99% of the Moon is Illuminated
Feb 24
Waxing Gibbous
Feb 25
Full
Mar 4
Last Quarter
Mar 11
New
Mar 19
First Quarter

Hourly Weather History & Observations

Time (PST) Temp. Windchill Dew Point Humidity Pressure Visibility Wind Dir Wind Speed Gust Speed Precip Events Conditions
12:53 AM 25.0 °F 18.1 °F 8.1 °F 49% 30.14 in 10.0 mi Variable 5.8 mph 25.3 mph N/A   Clear
1:53 AM 25.0 °F 13.1 °F 6.1 °F 45% 30.16 in 10.0 mi NE 13.8 mph 23.0 mph N/A   Clear
2:53 AM 25.0 °F 18.1 °F 5.0 °F 43% 30.15 in 10.0 mi ENE 5.8 mph - N/A   Clear
3:53 AM 21.0 °F 14.6 °F 6.1 °F 53% 30.16 in 10.0 mi Variable 4.6 mph - N/A   Clear
4:53 AM 17.1 °F 10.0 °F 6.1 °F 62% 30.20 in 10.0 mi South 4.6 mph - N/A   Clear
5:53 AM 17.1 °F 11.7 °F 7.0 °F 65% 30.23 in 10.0 mi WSW 3.5 mph - N/A   Clear
6:53 AM 16.0 °F 6.3 °F 8.1 °F 71% 30.26 in 10.0 mi South 6.9 mph - N/A   Clear
7:53 AM 19.0 °F 12.3 °F 9.0 °F 65% 30.27 in 10.0 mi South 4.6 mph - N/A   Clear
8:53 AM 27.0 °F - 10.9 °F 51% 30.26 in 10.0 mi Calm Calm - N/A   Clear
9:53 AM 30.9 °F - 9.0 °F 40% 30.24 in 10.0 mi Calm Calm - N/A   Clear
10:53 AM 32.0 °F - 9.0 °F 38% 30.24 in 10.0 mi Calm Calm - N/A   Clear
11:53 AM 36.0 °F 31.1 °F 10.0 °F 34% 30.24 in 10.0 mi Variable 5.8 mph - N/A   Clear
12:53 PM 39.0 °F 36.8 °F 5.0 °F 24% 30.21 in 10.0 mi Variable 3.5 mph - N/A   Clear
1:53 PM 39.9 °F 37.8 °F 5.0 °F 23% 30.19 in 10.0 mi Variable 3.5 mph - N/A   Clear
2:53 PM 39.9 °F 35.8 °F 10.0 °F 29% 30.19 in 10.0 mi NNE 5.8 mph - N/A   Clear
3:53 PM 41.0 °F - 6.1 °F 24% 30.21 in 10.0 mi Calm Calm - N/A   Clear
4:53 PM 37.0 °F 34.5 °F 9.0 °F 31% 30.23 in 10.0 mi North 3.5 mph - N/A   Clear
5:53 PM 32.0 °F - 12.0 °F 44% 30.26 in 10.0 mi Calm Calm - N/A   Clear
6:53 PM 28.9 °F - 12.0 °F 49% 30.29 in 10.0 mi Calm Calm - N/A   Clear
7:53 PM 28.0 °F - 10.9 °F 49% 30.29 in 10.0 mi Calm Calm - N/A   Clear
8:53 PM 26.1 °F - 12.0 °F 55% 30.26 in 10.0 mi Calm Calm - N/A   Clear
9:53 PM 25.0 °F - 12.0 °F 58% 30.26 in 10.0 mi Calm Calm - N/A   Clear
10:53 PM 23.0 °F - 10.9 °F 60% 30.25 in 10.0 mi Calm Calm - N/A   Clear
11:53 PM 21.0 °F 14.6 °F 10.0 °F 63% 30.25 in 10.0 mi South 4.6 mph - N/A   Clear